Location: Newark
(22.3060°N, 114.2134°E)
Time: 10:21:03
(UTC+00:00)

ISS - Pass Details

Date: 07 April 2020
Orbit: 417 x 419 km, 51.6° (Epoch: 03 June)

Event Time Altitude Azimuth Distance (km) Brightness Sun altitude
Rises 12:53:55 0° 311° (NW) 2,351 1.1 -30.5°
Reaches altitude 10° 12:56:05 10° 303° (WNW) 1,486 -0.1 -31.0°
Enters shadow 12:56:29 13° 301° (WNW) 1,337 -0.4 -31.1°
